Tracking 19794 objects as of 23-Jul-2019
HD Live streaming from Space Station
objects crossing your sky now

COSMOS 1275 DEB

Track COSMOS 1275 DEB now!
10-day predictions


NORAD ID: 12671
Int'l Code: 1981-053AB
Perigee: 876.8 km
Apogee: 905.8 km
Inclination: 82.9 °
Period: 102.7 minutes
Semi major axis: 7262 km
RCS: 0.0812 m2 (small)
Launch date: June 4, 1981
Source: Commonwealth of Independent States (former USSR) (CIS)
Launch site: PLESETSK MISSILE AND SPACE COMPLEX (PKMTR)

Note: This is SATELLITE DEBRIS
aabbcc
Your satellite tracking list
Your tracking list is empty




NASA's NSSDC Master Catalog

Two Line Element Set (TLE):
1 12671U 81053AB  19203.86735305 +.00000291 +00000-0 +17728-3 0  9996
2 12671 082.9153 004.6634 0019956 110.0115 250.3208 14.02793830925596
Source of the keplerian elements: AFSPC